"Time","Temp","Dewpoint","Humidity","Pressure","Direction","Speed","Gust","Precip","PrecipRate"
"00:04:57","57.4","52.9","85","30.10","46","0.2","1.2","0.00","0.00"
"00:09:57","57.3","52.9","85.4","30.10","46","0.1","1.2","0.00","0.00"
"00:14:57","57.2","53","86","30.10","46","0.2","1.2","0.00","0.00"
"00:19:59","57.1","53","86","30.09","46","0.4","2.3","0.00","0.00"
"00:24:57","57.1","53.2","86.7","30.09","46","0.3","2.3","0.00","0.00"
"00:29:56","57.1","53.3","87","30.09","46","0.4","2.3","0.00","0.00"
"00:34:58","57.2","53.5","87.1","30.09","46","0.8","3.5","0.00","0.00"
"00:39:57","57.4","53.9","88","30.09","46","0.2","2.3","0.00","0.00"
"00:44:56","57.5","54","88","30.09","46","0.1","1.2","0.00","0.00"
"00:49:58","57.7","54.2","88","30.09","46","0.1","1.2","0.00","0.00"
"00:54:56","57.7","54.2","88","30.09","46","0.4","2.3","0.00","0.00"
"00:59:58","57.8","54.3","88.2","30.09","46","0.4","2.3","0.00","0.00"
"01:04:59","57.9","54.7","89","30.08","47","1.3","3.5","0.00","0.00"
"01:09:57","58","54.8","89","30.08","48","0.6","2.3","0.00","0.00"
"01:14:56","58.1","54.8","89","30.08","48","0.5","2.3","0.00","0.00"
"01:19:59","58.1","54.9","89","30.08","48","0.2","1.2","0.00","0.00"
"01:24:33","58.1","54.9","89","30.08","48","0.5","1.2","0.00","0.00"
"01:29:59","58.1","54.9","89","30.08","48","0.1","1.2","0.00","0.00"
"01:34:57","58.2","55.1","89.5","30.07","48","0.1","1.2","0.00","0.00"
"01:39:56","58.2","55.3","90","30.07","48","0.4","2","0.00","0.00"
"01:44:59","58.2","55.3","90","30.07","48","0.1","2.3","0.00","0.00"
"01:49:57","58.2","55.3","90","30.07","48","0.2","1.2","0.00","0.00"
"01:54:59","58.2","55.4","90.2","30.07","48","0.7","2.3","0.00","0.00"
"01:59:57","58.2","55.6","91","30.07","48","0.2","1.2","0.00","0.00"
"02:04:58","58.2","55.6","91","30.06","48","1.1","3.5","0.00","0.00"
"02:09:56","58.3","55.7","91","30.06","48","1.1","3.5","0.00","0.00"
"02:14:59","58.3","55.7","91","30.06","49","1.6","3.5","0.00","0.00"
"02:19:57","58.3","55.9","91.6","30.05","58","1.9","5","0.00","0.00"
"02:24:59","58.3","56","92","30.05","63","0.9","3.5","0.00","0.00"
"02:29:58","58.3","56","92","30.05","62","1.2","3.5","0.00","0.00"
"02:34:56","58.3","56","92","30.05","63","0.2","3.5","0.00","0.00"
"02:39:59","58.3","56","92","30.05","63","0","1.2","0.00","0.00"
"02:44:57","58.3","56","92","30.05","63","0.2","2.3","0.00","0.00"
"02:49:56","58.3","56","92","30.05","57","0.9","3.5","0.00","0.00"
"02:54:58","58.3","56","92","30.05","5","1.2","3.5","0.00","0.00"
"02:59:56","58.2","55.8","91.4","30.05","334","2.7","6","0.00","0.00"
"03:04:58","58","55.4","91","30.05","334","1.7","4","0.00","0.00"
"03:09:56","57.9","55.3","91","30.05","341","1.6","5","0.00","0.00"
"03:14:59","57.8","55.2","91","30.06","339","1.6","4","0.00","0.00"
"03:19:58","57.8","55.2","91.3","30.06","340","1.8","5","0.00","0.00"
"03:24:56","57.7","55.4","92","30.06","331","2.2","5","0.00","0.00"
"03:29:58","57.6","55.3","92","30.06","332","1.7","5","0.00","0.00"
"03:34:57","57.5","55.2","92","30.06","331","1.5","4","0.00","0.00"
"03:39:59","57.4","55.4","93","30.06","355","1","4","0.00","0.00"
"03:44:58","57.3","55.3","93","30.06","350","1.9","5","0.00","0.00"
"03:49:56","57.2","55.2","93","30.06","347","0.5","3.5","0.00","0.00"
"03:54:58","57","55","93","30.06","345","0.8","4","0.00","0.00"
"03:59:56","56.9","55.2","93.8","30.06","345","0.8","3.5","0.00","0.00"
"04:04:57","56.8","55.2","94","30.05","343","0.9","5","0.00","0.00"
"04:09:59","56.8","55.1","94","30.05","343","0.5","2.3","0.00","0.00"
"04:14:58","56.7","55","94","30.05","343","0.4","3.5","0.00","0.00"
"04:19:56","56.7","55","94","30.05","344","0.3","3.5","0.00","0.00"
"04:24:58","56.6","55","94.1","30.05","344","0.4","3","0.00","0.00"
"04:29:56","56.6","55.2","95","30.05","344","0.8","4","0.00","0.00"
"04:34:35","56.6","55.2","95","30.05","344","0.6","3.5","0.00","0.00"
"04:39:58","56.6","55.2","95","30.05","344","0.1","1.2","0.00","0.00"
"04:44:56","56.6","55.2","95","30.05","23","0.3","2.3","0.00","0.00"
"04:49:58","56.6","55.2","95","30.05","23","0.1","1.2","0.00","0.00"
"04:54:56","56.6","55.2","95","30.05","23","0.4","2.3","0.00","0.00"
"04:59:58","56.6","55.2","95","30.05","23","0.8","3.5","0.00","0.00"
"05:04:56","56.6","55.2","95","30.05","23","0","2","0.00","0.00"
"05:09:57","56.7","55.3","95","30.05","23","0.3","2.3","0.00","0.00"
"05:14:57","56.7","55.6","95.9","30.05","22","0.1","1.2","0.00","0.00"
"05:19:59","56.8","55.6","95.8","30.05","23","0.2","2.3","0.00","0.00"
"05:24:57","56.8","55.6","95.9","30.05","24","0.3","3.5","0.00","0.00"
"05:29:59","56.8","55.7","96","30.05","22","0.2","2.3","0.00","0.00"
"05:34:58","56.8","55.7","96","30.05","22","0.2","2.3","0.00","0.00"
"05:39:57","56.8","55.7","96","30.05","22","0.4","3.5","0.00","0.00"
"05:44:59","56.9","55.8","96","30.05","22","0","2","0.00","0.00"
"05:49:58","56.9","55.8","96","30.05","22","0.3","2.3","0.00","0.00"
"05:54:56","56.9","55.8","96","30.05","22","0.2","3","0.00","0.00"
"05:59:58","56.9","55.8","96","30.06","20","1","4","0.00","0.00"
"06:04:59","56.9","55.8","96","30.06","19","0.6","2.3","0.00","0.00"
"06:09:58","56.9","55.8","96","30.06","19","0.5","2.3","0.00","0.00"
"06:14:57","56.9","55.8","96","30.07","15","0.4","4","0.00","0.00"
"06:19:59","56.9","55.8","96","30.07","5","1.2","3.5","0.00","0.00"
"06:24:58","56.9","55.8","96","30.07","5","1.2","3.5","0.00","0.00"
"06:29:56","56.9","55.8","96","30.07","0","1","5","0.00","0.00"
"06:34:59","56.9","55.8","96","30.07","355","0.9","3.5","0.00","0.00"
"06:39:58","56.9","55.8","96","30.07","355","1.2","4","0.00","0.00"
"06:44:57","56.8","55.7","96","30.07","351","1.3","4","0.00","0.00"
"06:49:59","56.8","55.7","96","30.07","348","0.8","4","0.00","0.00"
"06:54:57","56.7","55.6","96","30.07","348","1.2","3.5","0.00","0.00"
"06:59:59","56.7","55.6","96","30.07","344","1.1","5","0.00","0.00"
"07:04:56","56.7","55.6","96","30.07","341","1.9","6","0.00","0.00"
"07:09:58","56.6","55.5","96","30.07","349","1.4","4","0.00","0.00"
"07:14:56","56.6","55.5","96","30.08","342","1.9","6","0.00","0.00"
"07:19:58","56.6","55.5","96","30.08","338","0.7","3.5","0.00","0.00"
"07:24:56","56.6","55.5","96","30.08","337","1.3","5","0.00","0.00"
"07:29:58","56.6","55.5","96","30.08","335","0.6","4","0.00","0.00"
"07:34:56","56.6","55.5","96","30.08","330","0.8","4","0.00","0.00"
"07:39:59","56.7","55.6","96","30.08","330","0.7","3.5","0.00","0.00"
"07:44:57","56.7","55.8","96.5","30.08","330","0","1.2","0.00","0.00"
"07:49:58","56.8","55.7","96.2","30.08","341","1.9","5","0.00","0.00"
"07:54:56","56.7","55.6","96","30.08","341","1.4","4.6","0.00","0.00"
"07:59:59","56.7","55.6","96","30.08","340","0.8","3.5","0.00","0.00"
"08:04:56","56.7","55.6","96","30.08","339","2.1","4","0.00","0.00"
"08:09:58","56.8","55.7","96","30.08","334","1.4","4","0.00","0.00"
"08:14:57","56.9","55.8","96","30.08","324","2.1","5","0.00","0.00"
"08:19:58","56.9","55.8","96","30.08","336","1.3","4.6","0.00","0.00"
"08:24:56","56.9","55.8","96","30.08","336","0.7","3.5","0.00","0.00"
"08:29:58","57","55.9","96","30.08","336","0.3","2.3","0.00","0.00"
"08:34:56","57","55.9","96","30.08","336","0.3","2.3","0.00","0.00"
"08:39:59","57.1","56","96","30.08","336","0","2","0.00","0.00"
"08:44:58","57.2","56.1","96","30.08","336","0.5","4","0.00","0.00"
"08:49:56","57.2","55.8","95","30.07","8","0.8","3.5","0.00","0.00"
"08:54:57","57.4","56","95","30.07","10","0.5","3.5","0.00","0.00"
"08:59:59","57.7","56.3","95","30.07","336","1.4","5","0.00","0.00"
"09:04:56","57.9","56.2","94.1","30.07","334","2.1","5","0.00","0.00"
"09:09:58","58","56","93","30.07","334","1.8","6","0.00","0.00"
"09:14:57","58.2","56.2","93","30.07","333","0.5","2.3","0.00","0.00"
"09:19:58","58.4","56.4","93","30.07","334","0.5","2.3","0.00","0.00"
"09:24:56","58.6","56.5","92.7","30.07","334","0.3","2","0.00","0.00"
"09:29:58","58.7","56.5","92.2","30.07","340","0.7","3.5","0.00","0.00"
"09:34:59","58.8","56.4","91.7","30.07","321","2.2","5","0.00","0.00"
"09:39:58","58.9","56.3","91.1","30.07","338","2.2","5","0.00","0.00"
"09:44:57","59.1","56.5","91.2","30.07","342","1.1","3.5","0.00","0.00"
"09:49:58","59.3","56.7","91","30.07","340","1","3.5","0.00","0.00"
"09:54:56","59.5","56.7","90.3","30.07","340","0.9","3.5","0.00","0.00"
"09:59:58","59.6","56.7","90","30.07","342","1.9","6","0.00","0.00"
"10:04:59","59.8","56.9","90","30.07","340","1.6","4","0.00","0.00"
"10:09:57","60","56.9","89.7","30.07","338","2","5","0.00","0.00"
"10:14:59","60","56.7","89.2","30.07","271","2","4","0.00","0.00"
"10:19:57","60","56.8","89.1","30.07","343","2.9","7","0.00","0.00"
"10:24:59","60.3","57.3","89.7","30.07","346","2.8","7","0.00","0.00"
"10:29:57","60.8","57.6","89.3","30.08","347","2","5.8","0.00","0.00"
"10:34:59","61.1","57.6","88.5","30.08","343","1.9","6","0.00","0.00"
"10:39:58","61.5","58.1","88.5","30.08","340","1.8","5.8","0.00","0.00"
"10:44:56","62","58.1","87.1","30.08","293","2.3","6","0.00","0.00"
"10:49:58","62.4","58.3","86.3","30.07","317","1.3","4.6","0.00","0.00"
"10:54:59","62.9","58.7","86.3","30.07","334","1","3.5","0.00","0.00"
"10:59:57","63.4","58.9","85.4","30.07","325","1.1","4","0.00","0.00"
"11:04:58","64.3","60","85.9","30.07","333","0.8","5","0.00","0.00"
"11:09:59","65.4","60.3","83.8","30.07","340","2.2","6","0.00","0.00"
"11:14:58","66.3","60.7","82","30.07","334","2.2","5","0.00","0.00"
"11:19:56","66.6","60.5","80.8","30.07","344","2.8","10.4","0.00","0.00"
"11:24:58","66.7","60.1","79.5","30.07","331","4.2","12","0.00","0.00"
"11:29:59","66.3","59.8","79.6","30.08","339","3","6","0.00","0.00"
"11:34:57","66.1","59.6","79.9","30.08","334","4.3","14","0.00","0.00"
"11:39:56","65.8","59.5","79.9","30.08","336","3.9","13.8","0.00","0.00"
"11:44:58","65.8","59.6","80.3","30.08","346","3.5","11.5","0.00","0.00"
"11:49:56","66","59.9","81","30.07","341","3.8","11.5","0.00","0.00"
"11:54:58","66.3","60.2","80.8","30.07","342","2.9","7","0.00","0.00"
"11:59:57","66.6","60.4","80.3","30.07","341","4.1","11.5","0.00","0.00"
"12:04:58","66.7","60","79","30.07","335","4.2","10.4","0.00","0.00"
"12:09:59","66.6","59.9","79.1","30.07","320","4.1","13","0.00","0.00"
"12:14:58","66.2","59.2","78.3","30.07","342","6.6","13","0.00","0.00"
"12:19:59","65.8","59.1","79","30.07","354","4.8","12","0.00","0.00"
"12:24:57","65.7","59","78.8","30.07","346","5.6","12","0.00","0.00"
"12:29:59","65.9","59.3","79.3","30.07","328","3","10","0.00","0.00"
"12:34:57","66.3","59.2","78","30.07","329","3.8","10.4","0.00","0.00"
"12:39:56","66.3","58.9","77","30.07","325","4.2","12","0.00","0.00"
"12:44:58","66.2","58.7","76.8","30.07","343","5","11.5","0.00","0.00"
"12:49:56","66.2","58.7","76.8","30.07","353","4.1","9.2","0.00","0.00"
"12:54:58","66.4","58.7","76.4","30.07","342","3.7","11","0.00","0.00"
"12:59:56","66.4","58.5","75.8","30.07","348","3.2","11.5","0.00","0.00"
"13:04:57","66.2","58.1","75.1","30.06","3","3.7","10.4","0.00","0.00"
"13:09:58","65.7","57.7","75.3","30.06","339","3.4","11.5","0.00","0.00"
"13:14:58","65.4","57.6","76","30.06","337","3.6","10.4","0.00","0.00"
"13:19:59","65.2","57.3","75.8","30.06","336","3.6","9.2","0.00","0.00"
"13:24:57","64.9","57.2","76","30.06","330","4.6","12","0.00","0.00"
"13:29:59","64.8","57.1","76","30.06","339","4.1","11.5","0.00","0.00"
"13:34:57","64.7","57.2","76.5","30.05","333","1.5","5.8","0.00","0.00"
"13:39:56","64.7","57","76.1","30.05","332","3.9","8.1","0.00","0.00"
"13:44:58","64.5","56.8","76","30.07","338","4.2","10.4","0.00","0.00"
"13:49:56","64.4","56.9","76.7","30.07","346","2.3","6","0.00","0.00"
"13:54:58","64.4","57","76.9","30.07","333","3.2","9.2","0.00","0.00"
"13:59:57","64.4","57.3","77.7","30.07","346","3.4","7","0.00","0.00"
"14:04:58","64.4","57.3","77.9","30.06","337","2.7","8.1","0.00","0.00"
"14:09:59","64.3","57.2","77.8","30.06","304","2.6","8.1","0.00","0.00"
"14:14:59","64.2","56.9","77.2","30.06","335","3.8","11","0.00","0.00"
"14:19:57","64.4","56.8","76.6","30.06","335","3.6","11.5","0.00","0.00"
"14:24:58","64.5","56.8","76","30.06","326","3.5","8.1","0.00","0.00"
"14:29:56","64.5","56.7","75.8","30.07","307","3","7","0.00","0.00"
"14:34:58","64.4","56.3","75.2","30.07","336","3.5","9.2","0.00","0.00"
"14:39:57","64.2","56.1","75.1","30.07","335","2.6","6","0.00","0.00"
"14:44:59","63.9","55.7","74.8","30.07","356","2.8","7","0.00","0.00"
"14:49:57","63.5","54.6","72.7","30.06","320","4.1","10.4","0.00","0.00"
"14:54:59","63.2","54.4","73.2","30.06","294","3","8.1","0.00","0.00"
"14:59:56","63.1","55.4","75.8","30.06","344","0.8","6.9","0.00","0.00"
"15:04:57","63.1","55.9","77.1","30.05","334","0.8","4","0.00","0.00"
"15:09:59","63.1","56","77.5","30.05","338","2.5","5","0.00","0.00"
"15:14:58","63.2","56.1","77.7","30.05","324","2.6","6","0.00","0.00"
"15:19:56","63.3","56.1","77.5","30.05","339","3.2","7","0.00","0.00"
"15:24:57","63.1","55.9","77.5","30.05","336","2.4","7","0.00","0.00"
"15:29:56","62.8","55.6","77.5","30.06","347","1","3.5","0.00","0.00"
"15:34:58","62.5","55.6","78.2","30.06","342","1.7","5","0.00","0.00"
"15:39:57","62.3","55.8","79.4","30.06","348","2.9","5","0.00","0.00"
"15:44:59","62.1","56.3","81.5","30.06","343","1","5","0.00","0.00"
"15:49:57","61.8","56.2","82","30.04","338","0.7","4.6","0.00","0.00"
"15:54:58","61.5","56.3","83.1","30.04","337","0.7","3.5","0.00","0.00"
"15:59:56","61.2","56.5","84.4","30.06","222","2.1","4","0.00","0.00"
"16:04:57","60.8","56.3","85","30.06","170","1.5","3.5","0.00","0.00"
"16:09:59","60.6","56.1","85.2","30.06","167","0.2","3.5","0.01","0.01"
"16:14:58","60.5","56.5","86.7","30.06","167","0","0","0.01","0.01"
"16:19:56","60.5","56.8","87.5","30.04","167","0.6","2.3","0.02","0.02"
"16:24:58","60.4","56.7","87.6","30.04","167","0.1","1.2","0.02","0.02"
"16:29:56","60.4","57.1","88.9","30.04","167","0.2","2.3","0.02","0.02"
"16:34:58","60.3","57.3","89.8","30.03","167","0.4","2.3","0.02","0.02"
"16:39:57","60.2","57.3","90.1","30.03","167","0.3","2.3","0.02","0.02"
"16:44:59","60.3","57.7","91","30.03","167","0.2","2.3","0.02","0.02"
"16:49:57","60.3","57.7","91","30.03","167","0.3","3.5","0.02","0.02"
"16:54:59","60.3","57.5","90.5","30.03","167","0.4","2.3","0.02","0.02"
"16:59:57","60.1","57","89.5","30.04","170","0.6","3.5","0.02","0.02"
"17:04:58","60.1","57.1","89.9","30.04","171","0.2","1.2","0.02","0.02"
"17:09:55","59.9","57","90","30.04","169","0.8","2.3","0.02","0.02"
"17:14:58","59.8","56.9","90","30.04","168","1.4","3.5","0.02","0.01"
"17:19:56","59.7","56.8","90","30.01","168","0.5","2.3","0.02","0.01"
"17:24:58","59.6","56.8","90.3","30.01","169","1","2.3","0.02","0.00"
"17:29:56","59.6","57","91","30.03","169","0.3","2","0.02","0.00"
"17:34:58","59.6","57","91","30.03","169","0.1","2.3","0.02","0.00"
"17:39:57","59.6","57.2","91.9","30.03","169","0.5","2.3","0.02","0.00"
"17:44:59","59.5","57.2","92","30.04","169","0.3","1.2","0.03","0.01"
"17:49:56","59.4","57.1","92","30.04","169","0","0","0.03","0.01"
"17:54:58","59.3","57","92","30.04","168","0.8","2.3","0.03","0.01"
"17:59:56","59.2","56.9","92","30.04","156","1.5","3.5","0.03","0.01"
"18:04:57","59.1","56.8","92","30.00","108","1.6","5","0.03","0.01"
"18:09:59","59.1","57","92.8","30.00","309","3.1","6","0.03","0.01"
"18:14:57","59.1","57","92.9","30.03","330","2","5","0.03","0.01"
"18:19:59","58.9","56.7","92.3","30.03","336","1","3.5","0.03","0.01"
"18:24:57","58.8","56.7","92.6","30.03","335","0.8","2.3","0.03","0.01"
"18:29:59","58.8","56.8","93","30.04","328","0.7","3","0.03","0.01"
"18:34:57","58.7","56.7","93","30.04","327","0.7","3.5","0.03","0.01"
"18:39:56","58.7","56.7","93","30.04","327","0.1","2.3","0.03","0.01"
"18:44:58","58.6","56.7","93.1","30.04","327","0.4","2.3","0.03","0.01"
"18:49:56","58.6","56.8","93.6","30.02","327","0","1.2","0.03","0.00"
"18:54:58","58.5","56.8","94","30.02","327","0.5","2.3","0.04","0.01"
"18:58:58","58.4","56.7","94","30.02","329","0.3","2.3","0.04","0.01"
"19:04:58","58.3","56.6","94","30.00","331","0.6","2.3","0.04","0.01"
"19:09:59","58.2","56.5","94","30.00","335","1.2","3.5","0.04","0.01"
"19:14:58","58.2","56.5","94","30.03","334","0.6","3.5","0.04","0.01"
"19:19:56","58.1","56.4","94","30.03","335","0.6","3.5","0.04","0.01"
"19:24:58","58.1","56.5","94.2","30.03","335","0.5","3.5","0.04","0.01"
"19:29:56","58.1","56.7","95","30.03","335","0","0","0.04","0.01"
"19:34:58","58.1","56.7","95","30.03","335","0","0","0.04","0.01"
"19:39:57","58","56.6","95","30.03","335","0","0","0.04","0.01"
"19:44:59","58","56.6","95","30.04","335","0","0","0.04","0.01"
"19:49:58","58","56.6","95","30.04","335","0","0","0.04","0.01"
"19:54:56","58","56.6","95","30.04","335","0","0","0.04","0.01"
"19:59:58","58","56.6","95","30.04","335","0","0","0.04","0.00"
"20:04:56","58","56.6","95","30.04","335","0","0","0.04","0.00"
"20:09:57","58","56.6","95","30.04","335","0","0","0.04","0.00"
"20:14:57","58","56.6","95","30.05","335","0","0","0.04","0.00"
"20:19:59","58","56.6","95","30.05","334","0.2","2.3","0.04","0.00"
"20:24:57","58","56.6","95","30.05","287","0.9","6","0.04","0.00"
"20:29:59","57.8","56.2","94.4","30.05","270","1","7","0.04","0.00"
"20:34:58","57.6","55.6","93.2","30.05","299","1.7","6.9","0.04","0.00"
"20:39:57","57.4","54.9","91.4","30.05","347","1.4","5.8","0.04","0.00"
"20:44:56","57.2","54.5","90.8","30.05","355","0.7","3.5","0.04","0.00"
"20:49:58","57","54","89.5","30.05","236","0.6","3.5","0.04","0.00"
"20:54:56","56.9","53.8","89.3","30.05","310","1.1","4","0.04","0.00"
"20:59:58","56.7","53.3","88.3","30.06","336","1.5","6","0.04","0.00"
"21:04:55","56.6","52.8","87","30.06","321","1.4","5.8","0.04","0.00"
"21:09:57","56.4","52.4","86.5","30.06","335","1.6","5","0.04","0.00"
"21:14:56","56.2","52.1","86.1","30.06","333","1.2","3.5","0.04","0.00"
"21:19:59","56","52","86.3","30.06","333","0.6","3.5","0.04","0.00"
"21:24:57","55.8","51.3","85","30.06","336","1","5","0.04","0.00"
"21:29:56","55.6","50.8","83.8","30.06","333","1","4.6","0.04","0.00"
"21:34:58","55.5","50.5","83.4","30.06","335","1.6","4","0.04","0.00"
"21:39:58","55.3","50.1","82.6","30.06","341","0.6","3.5","0.04","0.00"
"21:44:56","55.2","49.9","82.3","30.07","330","1","5","0.04","0.00"
"21:49:58","55.1","49.8","82.4","30.07","305","0.9","5","0.04","0.00"
"21:54:56","55","49.4","81.1","30.07","322","1.8","5","0.04","0.00"
"21:59:58","55.1","49.1","80.2","30.07","268","2.2","7","0.04","0.00"
"22:04:59","55.3","48.8","78.7","30.07","314","3.1","7","0.04","0.00"
"22:09:57","55.5","48.7","77.7","30.07","328","2.5","6.9","0.04","0.00"
"22:14:56","55.6","48.5","76.8","30.08","328","2.5","5","0.04","0.00"
"22:18:20","55.7","48.3","76.1","30.08","310","2","4","0.04","0.00"
"22:24:56","55.6","48.2","76","30.08","292","1.8","5","0.04","0.00"
"22:29:59","55.4","47.6","75.1","30.08","301","1.3","4","0.04","0.00"
"22:34:57","55.4","47.6","75","30.08","254","1","3.5","0.04","0.00"
"22:39:56","55.4","47.2","73.7","30.08","292","1.7","5","0.04","0.00"
"22:44:58","55.5","47.2","73.7","30.09","269","0.5","3.5","0.04","0.00"
"22:49:57","55.5","46.7","72.5","30.09","305","1","5","0.04","0.00"
"22:54:59","55.4","46.8","72.8","30.09","321","1.4","4.6","0.04","0.00"
"22:59:57","55.3","46.4","71.8","30.09","324","1.3","4","0.04","0.00"
"23:04:58","55.3","46.2","71.4","30.09","334","0.4","3.5","0.04","0.00"
"23:09:56","55.1","46.1","71.7","30.09","295","1.4","3.5","0.04","0.00"
"23:14:59","55","46.2","72.3","30.09","285","0.8","2.3","0.04","0.00"
"23:19:57","54.7","46.1","72.9","30.09","291","1","10","0.04","0.00"
"23:24:56","54.5","45.7","72.1","30.09","337","2.7","10.4","0.04","0.00"
"23:29:58","54.5","45.9","72.5","30.09","321","1.9","7","0.04","0.00"
"23:34:56","54.4","45.8","72.9","30.09","293","0.7","3.5","0.04","0.00"
"23:39:59","54.2","45.3","71.9","30.09","293","0.6","3","0.04","0.00"
"23:44:58","54.2","45.2","71.5","30.09","294","0.6","3.5","0.04","0.00"
"23:49:56","54","45.2","71.9","30.09","312","1.3","5","0.04","0.00"
"23:54:58","53.7","44.9","71.9","30.09","313","0.9","4","0.04","0.00"
"23:59:56","53.5","44.5","71.6","30.09","313","0.3","2.3","0.04","0.00"
